Theta_e
325 326 326 327 327 326 326 326 327 327 327 328 328 328 328 329 327 325 327 326 323 327 330 327 327 327 327 328 324 324 325 322 322 322 323 325 325 324 325 325 326 326 326 325 325 325 325 325 326 325 325 325 325 325 325 324 323 321 320 321 321 321 320 320 319 319 319 318 316 315 316 319 321 323 324 325 325 325 325 323 321 317 313 310 309 310
324 326 326 325 325 325 325 325 326 327 328 328 328 328 328 328 327 325 326 326 324 326 328 326 327 326 325 326 324 323 324 322 321 321 322 324 324 324 324 325 325 326 326 326 325 325 325 325 325 325 325 325 325 324 325 325 325 323 321 320 320 321 321 321 321 320 319 318 317 315 314 315 318 321 322 324 325 325 326 326 325 324 320 316 311 309
325 326 325 324 323 323 324 325 325 327 327 327 328 328 329 327 327 327 325 326 325 325 328 327 326 325 324 325 323 322 323 323 322 322 323 324 325 325 325 325 325 325 326 326 326 326 326 326 326 325 325 325 324 324 324 325 326 325 323 321 320 321 321 321 321 321 321 320 319 317 315 314 315 317 319 322 323 324 325 325 325 326 325 322 316 311
327 326 324 323 323 324 324 325 325 327 327 328 327 327 328 327 328 328 326 326 326 327 332 331 328 326 326 328 325 323 322 323 324 324 324 325 326 326 326 326 326 326 326 327 327 327 327 326 326 326 325 325 324 324 324 324 325 326 325 324 322 321 321 322 322 322 322 321 321 320 318 316 315 316 318 319 321 322 323 323 324 324 325 326 323 317
325 324 323 323 323 324 325 325 326 327 328 327 327 326 327 327 328 328 326 327 327 327 329 330 330 328 327 329 328 325 323 323 324 324 325 325 326 326 326 326 327 327 327 327 327 328 327 327 327 326 326 326 325 325 325 325 325 325 326 326 325 323 322 322 323 323 322 322 321 320 319 319 318 317 317 318 319 320 320 321 321 322 323 325 325 323
321 321 323 324 324 324 325 326 326 327 328 327 326 326 326 327 327 327 327 328 329 330 328 329 331 331 328 328 328 326 326 326 324 323 323 324 325 326 325 326 326 326 327 327 327 327 328 327 327 327 327 327 326 326 327 326 325 325 325 326 326 326 326 325 325 324 323 323 323 322 321 321 320 318 318 319 320 320 320 320 319 320 321 321 322 324
320 320 323 324 323 324 324 326 326 325 328 328 326 326 325 326 326 327 327 328 330 330 328 328 331 331 329 328 327 326 326 326 325 324 323 323 324 324 324 325 325 325 326 327 327 327 327 328 327 328 327 327 327 327 327 327 326 325 325 326 326 326 327 327 327 326 325 324 324 324 323 322 321 320 321 322 322 322 321 321 320 320 320 321 321 321
320 320 323 324 323 324 324 325 325 324 327 327 325 326 326 325 326 326 327 328 329 328 328 327 328 329 329 329 329 327 327 326 325 325 323 321 322 323 323 324 324 324 324 325 326 325 326 327 327 328 328 328 328 328 327 327 327 326 326 326 326 326 326 326 327 327 326 327 326 326 325 324 323 322 323 323 321 322 322 322 322 322 322 322 322 322
320 319 321 322 323 324 324 324 323 323 325 326 326 326 325 325 325 325 325 326 326 326 328 326 326 329 328 327 330 329 327 327 325 325 324 321 321 323 323 324 324 323 324 324 325 325 325 326 326 327 327 327 328 328 328 327 327 327 326 326 326 326 327 326 327 327 327 327 327 327 326 326 325 325 325 322 320 321 322 322 323 323 323 323 323 323
321 319 319 320 323 323 323 323 323 323 323 324 325 325 325 325 324 325 324 323 322 324 327 326 325 328 328 326 328 328 326 325 324 324 323 321 321 322 323 324 324 323 324 325 325 325 325 326 326 327 326 327 327 327 328 328 327 327 327 327 326 326 327 327 326 327 327 327 327 327 327 327 326 326 326 323 322 322 322 323 323 323 324 324 324 323
318 317 317 319 321 321 321 322 321 321 321 320 321 323 325 324 322 323 322 321 322 324 325 324 324 327 328 326 325 325 324 323 323 322 322 321 320 322 323 323 324 325 325 325 325 325 325 325 325 327 327 327 327 327 328 328 327 327 327 327 327 327 327 327 327 327 327 327 327 327 327 327 327 327 327 325 324 323 323 323 324 324 325 325 325 325
316 317 319 318 318 319 321 321 318 318 319 320 320 322 325 324 320 320 320 319 323 326 325 323 323 325 327 326 322 323 323 322 322 321 321 321 319 320 322 322 323 324 324 324 323 323 322 321 323 326 328 328 327 327 327 328 328 327 327 327 327 327 327 327 327 327 327 327 327 328 327 327 327 327 327 327 326 326 325 325 325 326 326 326 325 325
316 317 318 318 317 318 321 322 320 318 318 320 321 322 324 324 323 325 323 322 324 325 325 324 323 324 325 323 321 322 321 321 320 319 320 320 319 319 320 321 321 321 321 322 322 321 321 321 321 323 325 326 327 327 327 327 328 327 327 327 327 327 327 327 327 327 327 327 327 328 327 327 327 327 327 327 327 327 326 326 326 326 326 326 326 326
316 315 316 318 317 318 320 321 320 318 318 320 321 322 324 325 325 327 326 324 324 323 324 323 323 324 323 321 321 321 319 318 317 318 319 319 319 320 320 320 321 321 321 321 321 321 321 321 321 321 322 323 324 324 324 325 327 328 327 327 327 327 327 327 327 327 327 327 327 327 327 327 327 327 327 327 327 326 327 326 327 327 327 327 327 327
314 314 314 316 318 318 319 320 320 319 319 319 320 320 322 322 322 323 324 324 323 322 323 322 323 324 322 321 322 319 318 318 317 318 319 319 319 320 320 320 320 321 321 321 321 321 321 321 321 322 322 322 322 323 323 324 326 328 328 328 328 328 328 327 327 327 327 327 327 327 327 327 327 327 327 327 327 326 327 327 327 327 327 327 327 327
312 313 314 314 316 318 319 318 319 321 321 320 320 320 321 322 320 319 322 322 321 321 322 322 324 325 323 322 322 320 320 319 318 318 318 319 319 319 319 319 319 319 320 320 321 321 321 321 321 322 322 323 323 323 324 324 325 327 328 328 328 328 328 327 327 327 327 327 327 327 327 327 327 327 327 327 327 327 326 327 327 327 327 327 327 327
310 312 314 314 315 318 318 318 318 320 321 319 319 321 321 321 321 321 322 321 320 322 321 320 323 324 323 322 321 322 322 320 319 318 317 317 318 318 318 318 318 318 319 319 320 320 321 321 321 322 322 323 323 324 324 324 325 326 327 327 328 327 327 327 327 327 326 326 326 326 326 327 327 327 327 327 327 326 326 327 327 327 326 327 327 327
310 309 312 314 315 316 315 317 317 317 319 320 320 321 320 319 319 320 321 321 321 322 322 320 321 322 322 323 323 321 321 321 322 319 317 316 317 317 318 318 319 319 320 321 321 322 322 322 322 323 323 323 323 323 323 324 326 326 326 327 327 327 327 326 326 327 326 326 326 326 326 326 326 326 326 326 326 326 327 327 327 327 327 326 326 327
311 309 314 315 315 316 315 317 319 317 317 319 318 318 319 320 320 319 320 322 323 322 322 322 321 321 321 322 324 323 321 321 322 320 320 319 317 316 318 319 320 320 321 322 322 323 323 323 323 323 323 323 323 323 323 324 325 325 326 326 327 326 326 326 326 326 326 326 326 326 326 326 326 326 326 326 326 326 327 327 327 327 327 326 327 327
312 310 315 315 314 316 317 317 320 319 317 316 315 315 316 318 321 321 320 322 325 323 322 323 323 322 321 319 321 322 321 321 320 321 322 319 316 317 318 320 321 321 321 322 321 322 321 321 322 323 323 324 323 324 323 323 325 325 326 326 326 325 325 326 326 326 327 327 327 326 326 326 326 326 326 326 326 327 327 327 327 327 326 326 327 327
315 311 313 314 314 316 317 316 317 318 318 317 317 318 317 316 318 319 319 321 323 323 323 324 323 323 321 318 319 320 318 319 321 322 321 317 315 317 317 318 318 318 319 319 319 319 319 319 320 321 322 323 323 324 323 323 324 325 325 326 325 324 324 325 326 326 327 327 327 327 327 326 326 326 326 326 326 327 327 327 327 327 327 327 327 328
317 313 312 314 315 315 316 316 316 317 317 317 318 319 318 317 318 319 320 320 320 320 322 322 322 324 323 319 318 318 318 319 318 319 318 315 314 316 315 315 316 316 317 318 318 318 318 319 320 320 321 321 322 323 323 322 323 323 323 323 323 324 325 325 326 326 327 327 327 327 326 326 326 326 326 326 326 326 326 327 327 327 327 327 327 328
314 315 314 314 316 316 316 316 317 318 319 318 317 317 317 317 318 319 320 320 319 318 319 319 320 323 324 320 319 318 317 316 315 314 314 314 314 315 315 316 317 317 317 317 317 318 318 319 320 321 321 321 322 323 323 323 323 323 323 323 324 325 325 324 325 325 325 325 325 325 325 326 326 326 326 326 326 326 326 326 326 327 327 327 328 328
313 316 315 314 315 316 315 314 313 314 317 318 318 317 317 317 317 318 318 318 319 319 320 320 320 321 321 322 323 319 314 313 313 313 313 313 314 316 316 316 316 316 317 318 318 319 320 321 322 322 321 321 322 323 323 324 324 324 325 325 325 325 325 324 324 324 322 321 321 321 323 324 325 326 326 326 326 326 326 326 326 327 327 327 328 328
312 314 314 314 314 314 314 314 312 312 314 316 318 317 316 317 317 317 317 317 318 318 319 320 319 320 322 324 323 319 316 315 314 313 314 314 315 316 316 316 317 318 318 319 319 320 321 322 323 323 322 321 322 323 323 324 325 324 324 324 325 324 324 323 321 319 318 317 317 317 319 322 323 324 325 325 326 325 325 325 325 325 326 326 327 327
313 313 312 312 312 312 312 313 313 314 313 314 316 317 316 316 317 317 317 318 318 319 318 319 318 319 321 322 319 318 318 315 313 314 315 316 316 317 317 318 318 319 319 318 319 320 319 320 323 324 323 322 322 323 324 324 322 321 320 320 320 320 319 318 317 316 316 316 315 315 317 319 321 322 323 323 324 324 324 323 323 323 323 324 325 325
314 314 312 311 311 310 310 310 313 316 316 314 315 315 315 316 316 316 317 317 318 318 318 318 318 318 319 318 316 316 316 315 315 314 314 315 316 316 317 318 318 318 318 318 318 319 319 320 321 323 324 323 323 324 324 321 319 318 318 318 317 317 316 316 316 316 316 316 316 316 316 316 317 319 320 321 322 322 322 321 321 322 322 322 323 324
314 313 312 311 311 310 309 310 313 316 316 315 314 314 315 315 316 316 317 317 317 318 317 317 317 318 317 316 315 315 314 315 315 313 312 313 316 317 317 318 318 318 318 318 318 319 320 320 320 321 322 322 323 324 322 319 318 318 318 318 317 316 316 316 316 316 317 317 317 317 316 315 315 315 317 318 319 319 320 320 320 320 321 321 321 322
313 312 311 312 311 311 311 311 310 312 314 315 315 315 315 314 314 315 315 316 317 317 317 317 318 319 317 316 316 315 314 314 314 313 313 315 316 317 318 318 319 319 318 318 319 320 320 321 320 320 319 319 320 320 320 319 318 318 317 317 317 317 317 317 317 317 317 317 317 317 317 316 315 314 314 314 315 315 317 318 319 319 319 320 320 320
312 312 313 313 312 311 312 311 310 310 311 312 313 314 315 314 314 313 313 314 315 316 316 316 317 317 317 317 317 315 315 315 314 315 314 314 315 316 317 317 318 318 319 319 319 319 319 319 320 320 319 318 318 319 319 318 318 317 317 317 318 318 318 318 318 318 317 317 316 316 317 317 316 316 315 314 313 313 313 315 317 318 318 319 319 319
309 313 314 313 312 312 311 312 312 311 311 311 312 313 314 314 314 313 312 313 313 314 315 315 316 316 316 316 316 315 315 315 315 315 314 315 315 315 315 316 316 318 318 318 318 318 317 317 319 320 319 318 318 318 318 318 317 317 317 317 317 318 318 319 319 319 319 318 317 316 317 317 317 317 316 315 313 312 312 313 315 317 318 318 318 318
309 312 313 313 313 311 311 312 311 310 311 312 312 312 312 313 313 312 312 313 313 313 314 314 315 315 315 315 315 315 314 315 315 314 314 315 314 314 314 315 316 317 318 318 318 317 315 314 317 319 319 318 318 318 318 317 316 316 316 317 318 318 318 318 318 319 319 319 318 317 317 317 317 317 317 316 315 314 313 313 314 315 316 317 317 317
311 312 313 313 312 310 310 313 312 311 310 310 311 311 311 311 311 311 312 312 313 313 314 314 313 313 314 314 314 314 314 314 314 313 314 314 314 314 314 315 316 316 317 317 317 315 313 313 315 318 319 319 319 318 316 315 315 316 316 317 318 318 318 319 319 319 319 319 319 318 316 316 316 316 316 316 315 315 314 315 315 315 316 316 317 317
310 312 312 312 312 311 310 312 313 311 310 310 311 312 311 311 311 312 312 311 312 313 312 312 312 312 312 313 313 313 313 313 313 312 313 313 313 313 313 314 315 315 315 315 314 314 314 313 314 318 319 319 320 319 318 316 315 316 316 317 317 318 318 318 318 319 319 319 319 318 316 316 315 315 314 313 313 313 313 314 314 314 315 315 315 315
308 311 311 310 310 310 309 311 311 310 308 309 312 313 313 312 311 311 311 311 310 311 311 311 312 312 312 311 311 311 311 311 311 311 311 311 311 311 312 312 313 313 313 313 312 312 313 312 314 317 319 320 320 319 319 317 316 316 316 317 318 318 318 318 318 318 318 318 317 316 315 314 314 313 313 312 312 312 312 312 311 312 312 312 312 312
308 310 310 310 309 309 309 310 309 308 307 307 309 309 309 310 310 311 311 311 310 310 310 310 310 310 310 310 309 309 310 310 309 309 309 310 309 310 310 311 312 312 312 312 311 311 313 315 316 318 319 320 319 318 317 316 315 316 316 316 317 317 318 318 318 317 317 316 316 315 314 313 313 313 312 312 313 313 313 313 312 312 311 311 311 310
308 310 310 309 309 308 308 308 308 307 306 306 306 306 306 308 311 312 312 312 311 310 310 310 310 310 309 309 309 309 309 309 309 309 309 310 310 310 310 310 311 312 312 313 313 314 316 317 317 317 318 318 317 316 315 315 314 314 314 315 316 316 317 317 317 317 315 313 313 313 313 313 313 313 313 314 314 314 314 314 314 314 313 313 312 311
307 309 309 308 308 308 307 308 308 307 306 305 305 307 306 306 310 312 311 310 310 310 309 310 310 310 310 310 309 308 309 310 310 310 310 310 310 310 311 311 311 312 313 314 315 316 317 317 316 315 315 315 315 314 314 314 313 313 313 314 314 315 316 316 317 316 314 312 312 312 312 313 313 313 314 314 314 314 314 314 314 314 314 314 313 313
306 307 307 307 308 307 307 308 307 305 305 304 305 309 307 304 308 312 312 310 309 308 307 309 311 310 310 310 309 308 310 311 311 310 310 311 311 311 311 312 312 312 313 314 315 316 315 315 314 313 313 312 313 313 313 313 313 313 313 313 313 313 314 314 315 314 313 313 312 312 312 313 313 313 313 312 312 312 313 313 313 313 313 313 313 312
306 306 306 306 307 306 306 307 306 305 305 303 305 308 306 304 308 313 312 310 308 307 307 308 309 310 309 308 309 310 311 311 311 310 310 311 311 311 312 312 312 312 313 313 314 314 313 313 313 312 311 311 311 312 313 313 313 313 312 312 312 312 312 312 312 312 312 312 312 312 312 312 313 313 312 312 312 312 312 312 312 312 312 312 312 312
305 306 306 306 306 306 305 306 305 304 304 304 306 307 306 307 312 312 310 309 306 306 308 308 308 309 308 308 308 309 310 310 310 310 310 310 311 311 311 312 312 312 312 312 313 313 313 313 313 313 312 312 312 312 312 313 313 312 310 310 311 311 311 310 310 311 311 311 311 311 311 311 312 312 312 312 312 311 311 311 311 311 311 311 311 312
305 306 307 306 306 305 305 305 304 304 304 303 305 306 306 309 311 308 307 306 305 305 307 309 309 309 309 308 308 309 309 309 310 310 310 310 310 310 311 312 312 312 310 310 311 312 312 312 312 312 312 312 312 311 312 313 313 312 310 310 309 309 309 308 308 309 309 309 309 309 309 310 310 311 311 311 311 311 311 311 311 311 311 311 311 311
305 305 306 306 306 305 305 305 304 305 304 304 305 307 308 308 308 305 304 306 306 306 307 308 309 309 309 309 309 309 309 309 309 309 309 308 307 308 308 309 310 309 308 308 308 309 309 310 310 310 310 310 310 310 311 312 313 312 310 309 309 308 307 306 306 306 307 307 307 308 308 308 308 309 309 309 309 309 309 309 309 310 310 310 310 310
304 305 305 306 305 305 305 304 304 304 303 304 306 308 308 306 305 305 306 306 306 307 307 307 308 309 309 308 308 308 307 307 308 308 307 306 305 305 305 305 306 306 305 305 306 306 307 308 309 309 309 308 308 309 309 309 310 310 309 308 308 308 307 304 303 303 304 305 305 305 306 306 306 307 307 307 308 308 308 308 308 308 308 308 308 308
304 304 305 306 305 305 305 304 303 303 303 304 305 307 308 306 305 306 306 307 307 307 307 307 308 309 309 308 307 307 307 307 308 307 306 304 304 304 303 303 303 303 303 303 303 303 304 306 307 307 307 306 306 306 307 307 307 307 306 306 305 305 304 303 302 302 302 303 303 303 303 303 303 304 305 305 305 306 306 306 306 306 306 307 307 307
305 303 304 307 307 305 305 304 303 303 303 303 305 306 306 307 307 307 307 308 308 308 307 307 308 309 309 309 308 307 307 307 306 305 304 303 302 302 302 301 300 300 299 300 300 301 301 302 303 304 304 303 303 303 304 304 304 304 303 303 302 302 302 302 301 302 302 302 302 301 301 301 301 302 302 302 303 303 303 304 304 304 304 305 305 305
305 303 304 308 308 306 306 306 305 304 303 303 304 305 306 306 307 307 308 308 308 308 307 307 308 309 309 308 307 306 306 305 304 302 301 300 300 300 300 300 299 298 297 297 297 297 298 299 300 300 301 301 300 301 301 301 301 301 301 301 301 301 301 300 301 301 301 301 301 301 300 300 301 301 300 301 301 301 301 301 301 302 302 302 303 303
306 304 306 308 307 306 307 308 305 303 304 304 304 305 306 306 307 307 308 309 308 308 307 307 307 308 307 307 306 305 304 303 302 301 300 299 298 298 298 299 299 298 298 297 296 296 296 297 298 298 299 300 300 300 300 300 300 301 300 300 300 301 301 301 301 301 301 301 301 301 301 301 301 301 301 301 301 301 301 301 301 301 301 301 301 301
304 304 307 309 307 306 308 308 305 304 306 306 305 306 306 307 307 308 308 308 308 307 306 306 306 305 305 305 305 304 303 301 301 300 299 298 297 297 297 298 298 298 298 298 297 296 296 296 297 298 298 299 298 299 299 300 300 300 300 301 301 301 301 301 301 302 302 302 302 302 302 302 302 302 302 303 303 303 302 302 303 303 303 302 302 302
304 305 307 308 308 307 307 307 306 307 308 306 305 306 308 308 308 308 307 307 307 306 305 305 304 303 303 303 303 303 303 301 299 299 298 297 297 297 297 298 298 297 297 297 297 297 298 298 299 299 299 298 297 297 298 299 299 299 299 300 300 300 299 299 299 299 299 299 299 300 300 299 299 299 299 300 300 300 300 300 301 301 302 302 301 301
304 305 306 306 307 306 305 305 306 307 308 306 306 307 307 307 308 308 307 307 307 306 305 304 303 303 302 302 301 302 302 300 298 298 298 297 296 297 297 297 297 297 297 297 297 298 298 299 299 298 298 298 297 297 297 298 298 298 298 298 298 298 298 297 297 297 297 297 297 297 298 298 298 297 297 297 297 298 298 299 299 298 298 299 298 298
Wind_Speed
17 7 5 10 11 15 17 17 18 12 6 7 9 9 7 6 6 5 5 6 6 4 6 12 13 12 11 9 13 24 25 19 19 18 20 24 25 25 26 26 26 26 26 26 29 31 31 31 31 30 30 29 28 28 28 30 32 33 33 33 33 32 31 31 32 32 32 33 33 33 34 36 36 35 35 35 35 35 35 35 34 34 33 32 32 32
13 9 9 16 17 17 17 15 15 11 9 9 7 6 7 8 8 6 6 7 5 3 8 9 10 13 11 8 12 20 18 15 19 20 22 27 28 28 28 27 27 26 25 24 28 31 31 33 33 33 34 33 32 30 30 29 30 32 34 35 35 33 33 33 33 33 34 34 34 33 34 34 35 35 35 35 34 34 35 36 36 36 34 33 33 34
6 8 14 20 17 13 13 13 13 13 13 11 5 5 7 7 5 4 5 7 5 4 8 8 10 14 11 9 12 16 16 17 23 25 25 28 28 28 28 27 27 27 26 25 27 29 30 31 32 34 37 37 36 33 32 31 30 33 36 37 36 35 35 35 34 35 35 35 34 34 33 33 34 34 34 34 34 35 36 37 38 38 36 35 35 36
6 8 17 19 14 12 11 11 13 12 11 10 7 7 8 7 6 5 5 6 6 5 6 5 7 11 8 7 8 15 23 21 21 25 26 26 26 28 27 25 25 25 26 27 27 28 30 31 31 33 36 37 38 37 36 35 35 35 37 38 38 38 38 37 37 37 36 36 35 36 36 35 35 34 34 35 36 38 39 38 38 38 38 37 36 36
9 8 12 13 11 13 13 11 12 11 9 11 11 10 10 8 8 7 4 5 5 7 6 2 5 8 7 9 7 10 18 18 18 21 22 26 28 29 28 28 28 28 28 29 29 29 30 34 35 36 37 37 39 39 39 39 39 38 37 37 38 39 39 39 39 39 39 39 39 39 40 39 39 38 38 38 40 41 40 39 39 38 37 37 36 36
13 10 9 12 11 12 13 12 13 12 9 11 12 13 13 8 7 6 5 6 4 7 7 5 6 8 6 10 10 7 9 13 17 17 20 27 29 29 30 31 33 33 33 32 32 32 32 34 37 40 42 42 42 43 43 42 41 41 40 38 38 39 40 40 40 41 42 43 42 43 43 43 43 42 42 43 44 43 41 39 38 37 36 35 35 36
10 12 9 11 12 12 13 12 14 14 9 9 10 14 14 7 5 6 6 6 5 6 5 6 7 8 4 7 10 9 9 13 16 15 20 27 28 30 32 33 35 37 38 38 38 38 37 36 38 41 44 46 47 47 46 45 44 44 43 42 42 42 42 41 41 42 44 46 46 46 46 46 46 46 46 46 45 44 42 40 38 37 36 36 36 37
8 15 11 11 12 11 12 9 11 15 12 9 8 11 12 10 9 8 6 6 3 2 3 4 6 7 8 7 6 8 10 12 14 14 18 23 26 30 33 35 37 39 42 44 45 45 45 43 43 45 45 45 46 46 47 48 47 47 47 46 46 45 45 44 44 45 47 47 48 49 49 49 49 49 48 48 47 47 44 42 41 40 40 39 39 39
6 14 14 13 12 9 10 8 9 14 11 6 5 9 11 14 13 9 6 5 1 1 4 4 5 6 10 6 5 7 9 10 13 15 16 18 24 29 33 36 36 37 40 43 45 46 46 46 47 48 48 47 47 46 46 48 49 50 50 49 49 49 49 48 48 48 49 49 49 50 52 52 52 51 50 49 50 50 48 47 45 45 44 44 43 42
1 8 13 12 9 8 9 8 9 12 9 2 6 7 5 8 10 8 6 4 2 3 8 8 6 6 11 7 5 6 10 12 12 12 13 18 23 28 32 35 35 37 38 38 39 39 39 40 41 42 44 46 47 46 47 48 49 51 52 51 51 52 52 51 51 51 52 51 51 52 53 54 54 53 52 53 54 54 52 52 50 50 49 48 47 46
1 1 8 8 9 10 9 6 8 13 9 3 5 2 2 1 4 4 4 4 3 6 10 12 11 8 10 9 7 8 10 12 10 10 13 17 22 28 32 34 34 35 35 35 35 36 37 38 39 39 41 43 44 45 47 49 50 52 53 53 54 54 54 54 54 54 54 54 54 54 54 54 54 53 54 56 57 57 56 56 54 53 52 51 49 48
2 1 3 3 7 9 8 5 3 7 10 5 4 2 1 1 1 1 1 2 4 6 8 13 13 10 11 12 7 8 11 12 11 11 12 13 20 27 31 33 35 37 39 40 41 42 44 45 45 45 44 43 43 45 48 49 51 53 54 55 56 56 56 57 56 56 56 56 56 56 55 55 54 53 55 57 58 58 58 58 56 55 54 52 51 49
6 3 2 2 2 6 9 6 1 1 4 6 4 5 4 3 2 2 3 3 5 6 6 11 13 11 12 14 9 9 11 11 11 14 16 17 22 27 31 35 39 40 43 45 46 47 47 47 48 49 49 48 47 48 48 49 50 52 54 56 57 58 58 58 58 58 58 58 58 57 57 56 55 54 55 57 58 59 59 58 57 56 55 54 52 50
4 4 4 1 2 6 11 9 6 3 6 10 9 8 7 5 5 7 6 5 7 8 7 10 10 7 7 11 13 15 15 12 14 19 20 21 24 29 33 37 39 41 43 44 45 46 46 47 49 50 52 52 52 53 52 51 51 52 53 55 57 58 58 58 59 58 59 59 59 59 58 57 57 56 56 57 58 58 58 58 58 57 56 55 53 52
9 7 8 10 6 10 13 11 11 7 6 10 8 8 9 6 6 6 6 7 8 6 5 5 6 6 6 7 9 13 17 22 26 26 22 23 27 32 34 35 37 39 41 42 44 46 47 48 50 51 51 51 52 53 53 52 52 52 52 54 56 57 56 57 58 58 59 60 59 58 58 58 58 57 57 57 58 58 58 59 59 59 57 56 54 53
11 8 7 14 12 13 13 11 7 6 4 5 3 6 10 8 7 5 4 6 5 5 4 3 4 4 4 8 6 6 13 20 27 28 26 31 36 35 35 36 39 40 41 42 44 47 49 50 51 51 51 51 50 51 51 52 52 51 52 52 54 55 54 54 56 57 57 58 58 57 57 57 57 57 58 58 58 58 58 59 59 59 58 56 55 53
10 8 3 8 9 12 16 12 9 9 6 2 4 9 6 3 4 6 5 1 2 6 6 6 7 5 3 9 6 6 8 10 16 19 21 29 34 33 34 38 40 41 42 44 45 47 50 50 50 51 51 51 50 51 51 53 52 50 50 52 54 53 52 53 54 55 55 55 56 56 55 55 55 55 57 57 57 57 58 59 59 59 58 56 55 54
7 6 1 6 9 12 15 13 9 10 8 4 5 8 3 3 1 2 4 3 4 7 5 8 13 9 6 7 6 10 10 8 12 14 13 20 25 26 31 35 37 38 41 42 43 45 47 47 48 49 50 50 51 51 51 52 51 48 49 51 52 52 51 51 50 51 52 53 54 54 53 52 52 53 54 54 54 55 57 59 59 58 57 56 55 55
5 4 3 7 11 6 7 9 6 8 9 5 3 3 2 2 4 3 4 5 7 8 5 8 13 9 9 7 6 10 12 10 13 13 12 13 15 19 27 32 34 37 39 41 42 44 45 46 47 47 47 47 48 50 50 49 49 50 51 51 49 48 48 46 44 45 48 50 52 52 50 50 49 50 52 53 53 54 57 59 58 58 57 55 55 55
5 4 5 4 7 6 6 5 7 8 4 1 1 1 1 2 5 5 4 2 5 8 7 8 9 6 7 9 10 13 13 11 11 11 10 11 13 19 25 29 33 36 38 39 41 43 44 45 46 45 45 46 47 48 48 48 47 47 49 47 44 44 45 43 41 41 44 46 48 49 48 49 49 50 52 52 52 54 56 57 56 56 56 55 55 55
3 5 5 3 1 7 6 7 12 14 8 3 5 6 4 3 2 2 2 2 3 5 6 7 7 5 4 8 13 18 15 9 10 9 9 11 17 22 24 27 31 33 35 37 39 41 43 45 47 47 47 49 50 49 47 45 43 43 44 44 43 45 44 41 39 39 40 42 44 46 47 48 49 50 51 52 52 54 55 55 55 55 55 55 56 55
2 5 5 1 2 6 7 7 8 11 11 8 8 9 8 7 4 3 3 2 1 3 4 4 4 4 3 6 10 15 12 6 9 10 9 14 23 26 25 25 27 29 31 34 36 38 41 43 45 47 49 51 51 49 47 44 42 43 44 45 47 46 42 38 37 39 40 41 44 46 47 47 48 49 50 51 51 52 52 53 53 53 54 55 55 55
3 3 3 2 4 5 6 3 3 1 4 6 7 8 8 8 7 7 7 5 3 4 4 3 3 4 5 6 7 10 9 6 10 11 9 14 21 24 25 25 26 29 32 35 37 38 40 41 42 44 47 50 51 49 46 42 40 40 40 41 42 41 37 34 35 37 39 41 43 44 46 46 47 48 49 50 50 50 50 50 51 52 53 54 54 54
3 3 3 3 1 3 3 2 5 5 4 2 6 8 9 9 11 11 9 7 7 6 5 4 5 4 4 5 5 8 8 7 11 11 7 8 17 23 29 31 31 32 33 35 36 37 39 41 43 43 43 44 46 45 41 37 36 36 36 36 36 35 33 32 33 34 35 37 38 39 42 44 44 46 47 48 49 48 48 48 49 50 51 52 52 52
8 4 5 5 0 1 3 4 4 3 0 3 6 8 11 13 13 11 7 7 8 9 9 8 7 5 3 5 6 8 10 8 7 7 7 9 17 26 31 32 32 32 33 32 33 35 37 40 42 43 41 38 36 36 33 31 30 30 30 31 31 31 29 28 29 30 32 34 34 35 36 38 41 43 44 46 46 46 46 47 48 48 48 49 49 49
8 4 6 8 6 6 8 7 6 5 3 2 3 8 13 14 15 11 6 7 8 8 10 10 8 5 4 8 10 10 13 11 5 4 8 11 16 22 24 26 29 33 34 31 31 35 39 40 41 41 39 35 33 32 28 22 20 19 19 20 21 22 23 23 25 27 29 30 31 31 32 34 37 40 42 44 44 45 45 45 46 46 45 45 45 46
4 4 8 11 11 11 11 10 5 2 4 5 7 11 13 11 12 9 6 8 7 7 10 11 8 7 7 11 15 13 13 14 9 6 9 13 16 19 20 23 28 33 36 35 35 36 37 38 39 38 34 31 30 27 20 14 13 13 13 14 15 18 20 21 23 24 25 26 27 28 29 31 33 36 39 41 42 43 43 43 43 42 41 41 42 42
3 6 12 14 16 14 11 7 2 5 4 7 9 11 11 10 10 9 10 10 8 7 11 10 7 9 10 13 17 16 14 13 11 10 12 13 14 15 17 20 25 30 35 38 37 34 32 33 36 36 31 25 24 22 17 14 13 13 14 14 15 17 18 18 19 20 21 23 24 26 27 28 31 33 36 38 40 41 41 41 40 39 38 39 39 38
3 9 11 11 15 14 11 7 2 3 3 5 6 8 9 11 12 14 14 13 10 10 10 8 6 8 9 10 15 17 13 11 14 15 13 13 13 14 15 18 21 25 31 36 35 32 30 31 33 35 30 20 16 16 15 14 14 14 13 14 14 14 13 12 13 14 15 18 20 21 22 25 27 30 32 35 37 38 39 39 38 37 37 36 35 34
3 6 4 6 11 12 11 9 5 4 4 2 5 6 6 8 10 12 13 13 14 14 11 11 13 12 8 7 14 20 14 10 15 17 15 16 18 18 19 20 23 26 30 35 36 34 33 32 31 32 28 17 10 11 12 13 13 13 13 14 14 14 12 11 11 12 13 15 16 18 20 22 24 26 29 31 33 34 35 36 36 36 35 34 33 32
3 5 3 6 6 9 9 9 6 6 6 5 6 5 6 7 8 9 10 10 11 11 11 13 14 14 10 9 18 27 23 17 19 21 22 25 25 23 22 24 28 31 33 36 39 38 37 33 29 28 24 17 12 12 13 13 13 14 14 14 14 13 13 13 12 12 13 14 16 18 20 21 22 24 25 26 28 29 30 31 32 33 33 32 31 30
3 3 2 5 5 7 6 7 5 5 3 3 6 8 10 11 10 10 9 8 9 8 9 11 10 10 11 11 16 25 26 21 20 23 26 31 31 28 27 30 34 37 38 41 44 41 37 34 31 27 23 20 18 17 16 15 14 14 13 13 12 12 12 13 13 13 13 14 15 17 19 20 21 21 20 20 20 21 23 25 27 29 29 29 29 28
5 4 2 4 6 6 2 6 6 6 3 4 9 12 16 15 12 10 8 8 10 9 8 9 10 11 12 11 13 20 23 19 19 23 28 32 34 34 34 37 40 42 43 45 44 40 37 35 33 29 25 23 23 22 18 15 14 13 13 13 13 12 12 12 13 13 13 14 14 15 17 18 19 18 16 15 15 16 17 19 22 24 25 26 26 27
5 6 3 4 4 3 2 5 6 2 4 7 5 8 13 15 14 13 13 14 13 11 9 10 10 11 13 12 15 19 21 23 27 31 32 32 34 34 34 37 39 39 41 43 42 40 39 38 37 32 28 27 27 26 22 18 16 14 13 14 14 13 13 12 13 13 14 14 14 14 15 17 17 16 16 15 14 14 14 16 18 19 21 22 23 23
6 6 4 2 4 2 1 5 5 4 8 4 3 3 10 14 15 16 16 16 14 12 12 12 12 13 14 16 20 23 28 37 41 40 37 37 37 36 35 35 36 37 39 42 44 46 45 42 40 36 30 28 27 25 24 21 18 15 14 15 14 13 13 13 13 14 15 16 15 15 15 16 16 15 15 15 15 14 14 14 15 16 17 18 19 20
7 5 3 2 3 2 1 4 3 6 6 8 9 6 6 5 7 8 9 11 12 12 12 13 16 17 17 20 28 33 38 44 42 36 37 38 38 37 36 36 37 38 40 43 46 48 45 41 39 34 29 26 24 22 19 17 14 13 13 13 13 13 13 13 13 14 15 17 17 16 17 17 16 14 13 13 13 13 13 13 13 14 15 17 18 19
8 6 3 2 2 2 2 2 3 5 9 13 12 5 5 4 5 6 6 9 10 12 13 14 16 19 19 22 31 37 37 31 22 25 38 41 37 37 38 39 41 42 42 43 43 42 38 33 30 27 24 23 21 19 16 13 12 11 11 12 13 12 12 12 12 13 14 14 14 14 14 15 14 12 12 12 13 13 13 13 13 14 15 16 17 18
7 6 5 3 2 3 5 1 3 2 6 14 7 6 9 9 8 8 4 7 9 12 15 15 17 19 18 18 27 30 24 15 7 18 38 39 30 32 36 38 41 42 41 40 37 35 31 27 23 20 18 18 17 15 12 10 9 8 8 10 11 11 11 11 11 12 14 13 12 12 12 12 12 11 12 13 13 13 13 13 13 14 14 14 15 15
5 4 5 5 2 3 5 3 3 3 11 13 2 6 8 11 10 8 3 8 15 13 16 15 15 17 15 16 22 19 11 6 6 18 33 27 20 27 32 32 35 37 38 36 32 29 26 22 20 17 15 14 13 11 9 7 6 6 6 8 9 9 10 10 9 11 13 13 13 13 12 12 12 12 12 12 12 13 13 13 13 13 13 14 14 14
5 3 4 5 4 4 5 3 3 4 12 11 3 5 7 14 13 8 2 11 15 9 14 16 13 15 19 22 21 11 6 8 12 23 30 23 19 26 26 24 28 31 33 32 28 25 23 19 17 15 13 12 10 8 6 5 5 6 6 6 7 7 7 7 7 8 10 11 12 12 12 12 13 13 12 12 12 12 12 13 13 13 14 14 14 15
3 3 4 5 6 5 6 5 3 4 12 10 5 11 13 15 10 3 8 15 13 3 10 16 18 23 28 25 17 10 14 24 29 34 35 26 24 25 21 20 25 26 27 28 26 25 24 21 20 18 16 14 11 8 8 7 6 4 3 3 4 4 5 5 5 6 7 8 8 9 9 10 10 11 11 11 11 11 11 12 12 13 13 14 15 16
4 3 3 5 5 4 5 4 2 5 12 9 12 19 17 11 3 8 14 20 17 7 4 12 20 27 28 26 23 23 29 33 31 32 32 27 24 22 17 19 22 22 23 24 23 24 24 22 21 20 18 15 13 10 10 11 9 5 4 3 2 2 3 3 2 3 4 4 5 5 5 6 6 6 7 8 8 9 9 9 10 10 11 12 13 14
7 6 5 6 5 5 4 3 3 7 9 9 17 14 10 7 9 13 14 18 21 15 9 13 22 25 24 26 29 29 30 29 24 24 25 22 18 15 13 15 17 18 18 18 19 20 20 20 20 18 16 14 12 11 10 10 9 7 6 5 4 4 4 2 2 2 3 3 2 2 2 3 3 3 4 4 5 6 6 7 8 8 9 10 10 11
7 7 6 5 5 5 5 7 9 10 6 16 17 7 11 19 21 17 10 12 18 17 13 14 21 24 23 25 26 24 23 22 21 21 20 16 13 11 11 12 13 14 14 15 16 16 16 18 18 16 15 13 11 10 9 7 7 7 6 6 7 7 6 4 3 3 4 4 3 2 1 1 1 0 1 1 2 3 3 4 5 6 7 7 8 8
9 8 4 4 7 7 6 10 15 14 10 16 14 9 16 27 28 21 14 15 19 19 15 16 21 23 22 23 23 21 19 19 19 19 17 15 13 12 13 13 13 14 14 14 15 14 15 15 16 16 15 13 11 10 9 9 8 8 8 8 8 8 7 6 4 3 4 5 5 5 4 4 4 3 3 3 2 2 2 2 3 3 4 4 5 5
7 7 4 2 5 6 8 13 16 15 13 16 18 16 16 20 22 22 22 24 26 24 20 19 22 23 23 22 22 20 20 20 19 17 15 14 14 15 16 16 16 15 14 15 15 15 15 15 16 17 17 16 14 13 12 12 10 10 10 10 10 9 8 7 5 4 4 4 4 5 5 5 5 5 5 4 3 3 3 3 3 3 3 4 4 4
3 7 5 2 4 6 8 12 14 16 18 17 17 19 21 22 23 25 27 29 30 26 22 20 21 22 21 20 20 21 20 19 18 16 15 15 16 17 18 19 19 18 17 16 15 15 16 17 17 18 19 19 17 15 15 14 13 13 14 13 12 11 9 8 7 7 6 6 6 5 5 4 4 4 4 4 4 4 4 4 4 3 3 3 3 4
4 9 7 5 7 7 8 9 8 12 18 17 17 21 24 25 27 29 30 31 30 26 23 21 20 19 18 18 18 18 18 18 20 20 19 19 19 20 20 20 20 20 18 16 14 13 14 16 17 18 18 18 17 16 15 15 14 15 15 13 12 10 8 7 6 6 5 4 4 4 3 3 2 1 1 1 1 1 1 2 3 3 4 4 4 4
8 9 6 5 5 6 12 9 3 4 12 16 19 22 23 25 28 28 28 28 27 24 22 21 20 19 18 17 17 18 19 21 22 23 23 23 23 23 22 22 21 21 20 19 16 13 12 12 13 13 14 15 14 13 12 12 12 12 12 11 9 8 6 6 5 4 4 4 4 4 4 4 5 5 5 5 5 5 5 6 6 6 7 8 8 8
7 7 4 3 5 8 12 9 6 3 8 13 14 16 20 23 26 27 26 25 25 25 23 21 20 19 18 18 18 20 23 24 25 25 26 25 24 24 23 23 23 22 21 20 18 16 13 11 9 9 9 10 9 9 9 9 9 8 8 7 6 5 5 4 4 4 4 4 5 5 5 6 6 7 8 8 8 8 7 7 7 7 7 8 8 9
9 8 7 6 8 11 10 7 9 8 9 14 15 15 18 21 22 24 25 24 25 26 24 22 21 19 17 17 19 22 25 27 28 28 27 25 24 23 23 23 22 22 21 19 17 15 13 12 11 10 9 8 7 7 7 7 7 6 6 6 5 5 5 5 5 5 5 5 5 6 6 7 8 8 9 10 10 11 10 9 8 7 6 6 7 8
Wind_Direction
185 181 196 204 205 203 202 203 213 222 213 203 204 217 217 212 239 212 221 238 172 166 227 218 235 240 227 223 234 242 243 242 240 239 243 248 252 254 257 260 263 266 269 268 259 254 255 255 256 256 256 256 254 252 250 247 247 247 246 245 244 243 242 241 240 240 240 240 239 239 241 243 243 244 244 245 247 249 251 252 252 252 251 250 248 247
190 202 213 209 212 210 206 207 215 225 227 223 206 205 222 219 234 218 206 233 198 197 243 230 242 248 234 220 229 238 243 239 234 235 240 244 250 254 257 259 262 266 267 266 260 256 255 254 254 253 253 252 251 249 247 246 247 246 245 245 245 244 241 241 241 241 242 243 243 244 247 248 248 248 248 249 250 251 253 253 252 252 251 249 247 247
203 213 216 214 217 214 210 207 209 221 226 233 217 200 230 216 225 247 210 218 200 204 248 241 245 253 244 230 227 229 237 239 232 230 234 238 244 250 253 257 260 262 262 262 263 260 256 255 255 253 251 250 250 249 247 248 248 247 245 244 244 244 242 243 244 244 245 246 247 249 251 251 251 251 252 253 253 252 251 251 251 251 250 248 246 246
209 213 214 214 215 211 215 205 203 219 224 229 220 211 235 206 192 242 223 208 200 204 238 230 240 255 250 238 234 228 234 242 238 233 236 237 240 245 247 251 254 257 259 260 261 261 260 258 256 252 250 249 249 249 248 247 246 245 246 246 244 244 244 245 246 247 248 248 248 250 250 250 250 251 251 251 251 249 248 249 249 249 248 247 246 246
225 224 207 208 211 206 212 205 201 215 219 224 220 214 232 212 199 228 206 178 205 232 237 232 269 263 232 227 240 233 235 246 244 235 235 237 240 245 248 250 252 254 256 257 256 255 257 258 258 256 253 251 250 249 250 250 247 245 247 248 247 246 247 248 248 249 248 246 245 245 245 245 245 245 245 244 245 244 244 245 246 246 246 246 245 245
230 225 185 194 210 203 208 210 202 206 216 224 217 215 225 207 189 212 176 151 188 241 229 195 252 266 226 218 224 220 226 242 244 236 232 236 239 243 246 250 253 255 255 256 255 253 252 254 256 257 256 255 253 252 254 255 252 249 249 250 250 250 250 250 251 250 248 246 245 244 243 242 242 241 241 243 244 243 244 246 247 246 247 247 247 246
228 218 185 191 201 196 208 216 203 200 215 230 210 208 219 199 175 196 172 166 194 235 227 181 222 265 265 226 221 208 210 229 237 240 239 237 238 242 245 248 252 254 255 254 254 254 252 253 253 254 255 255 256 257 258 258 255 252 251 251 251 252 253 253 253 252 249 247 246 245 245 245 245 244 246 250 251 249 249 250 250 249 250 250 250 250
206 209 200 195 192 191 207 214 197 192 205 229 205 192 204 202 203 206 192 201 214 278 285 196 203 256 267 241 210 193 206 228 235 241 246 241 238 241 244 248 251 253 254 252 252 254 253 252 253 253 253 254 257 260 260 259 256 253 252 253 253 253 254 255 255 253 251 250 250 249 249 248 247 248 250 253 252 253 252 250 250 251 251 251 251 252
195 204 206 202 197 199 206 205 191 192 209 228 157 163 196 206 209 207 199 223 256 21 261 215 173 239 259 238 169 182 208 227 233 235 244 242 235 238 241 245 249 251 252 253 253 254 255 254 255 256 256 256 257 259 259 258 258 256 254 254 254 254 255 256 255 253 252 253 253 253 252 250 250 251 252 251 250 251 252 252 252 252 252 252 252 253
220 206 204 201 206 211 207 202 179 188 217 214 129 153 204 209 204 201 198 211 214 213 225 216 184 220 256 244 169 190 216 222 231 231 239 241 234 235 239 242 247 249 251 253 254 255 257 257 258 258 258 257 257 257 257 258 258 257 255 254 253 254 255 256 255 253 253 253 253 253 253 253 254 254 254 251 249 249 250 252 253 253 254 254 253 253
3 173 192 189 209 210 200 197 177 184 196 107 93 113 3 38 176 185 192 185 199 228 223 213 201 206 250 254 200 200 219 215 221 228 236 241 236 237 240 244 247 248 249 250 252 255 258 260 260 258 257 256 256 256 256 257 257 256 255 255 254 255 255 256 256 255 254 254 253 253 254 255 257 257 256 253 251 251 251 252 254 255 256 256 255 255
233 114 189 193 207 190 177 198 194 182 180 136 95 130 344 316 133 117 165 171 209 228 211 206 206 201 232 250 207 195 222 214 212 224 230 236 235 236 239 243 245 246 248 250 253 256 259 261 259 257 256 254 254 255 255 255 256 255 255 254 254 255 255 255 255 254 254 253 253 254 255 256 258 259 257 255 255 254 253 254 256 256 257 256 255 255
217 214 228 311 274 175 176 193 253 39 168 176 159 157 199 215 192 203 193 202 229 231 206 197 203 208 232 251 234 211 224 217 215 226 228 232 237 239 241 244 246 248 250 252 255 257 258 259 257 256 255 255 254 255 254 255 255 255 255 254 254 255 256 256 255 254 254 254 254 256 256 256 257 258 257 257 257 257 255 256 257 257 257 257 256 256
217 245 209 213 307 205 190 183 191 203 186 195 184 176 201 199 205 217 200 217 233 232 224 194 195 214 232 244 238 231 233 231 232 233 231 235 239 243 245 247 249 250 251 252 254 256 256 257 258 258 258 258 258 258 258 257 256 255 255 255 255 256 257 256 255 255 254 255 256 257 258 258 257 257 257 257 258 258 258 257 257 257 258 259 260 259
201 227 198 191 197 188 196 202 197 179 181 204 195 192 209 203 225 231 199 221 235 241 243 190 188 206 199 228 232 221 225 233 238 239 239 245 247 248 250 250 251 252 252 252 254 255 257 259 261 262 262 262 262 263 262 260 257 255 255 256 256 257 258 258 257 256 255 256 257 258 258 257 257 257 257 258 259 259 259 258 258 258 259 260 261 262
206 237 215 202 191 166 189 215 188 140 174 213 175 205 222 210 226 249 222 221 226 241 243 193 222 224 219 267 268 195 206 222 234 239 239 246 249 250 252 252 252 253 253 254 255 257 260 262 263 264 264 264 264 264 263 261 258 255 255 257 258 259 260 261 260 258 258 258 258 258 257 258 258 258 257 257 258 259 258 258 257 258 260 261 262 263
202 234 217 188 193 185 191 195 171 163 178 170 174 206 217 165 197 235 256 267 151 228 222 194 237 258 267 277 264 218 215 205 223 234 230 238 244 246 248 250 251 253 254 256 257 260 263 264 264 265 265 265 265 264 264 263 260 257 257 258 259 261 262 262 262 261 261 259 258 258 258 258 258 257 257 258 259 259 259 257 257 258 260 262 262 262
188 225 217 153 196 212 191 171 167 182 168 127 195 203 155 62 83 196 242 240 204 236 229 199 224 224 211 247 239 227 232 205 217 230 226 233 239 241 245 249 252 254 256 259 262 263 266 267 267 268 269 268 267 266 266 266 262 258 260 261 260 262 264 265 265 264 263 261 259 259 259 258 257 257 258 258 259 259 258 256 256 258 260 261 262 262
170 223 278 184 190 190 148 148 176 208 193 165 196 190 127 223 230 178 203 226 219 235 237 212 224 218 198 216 235 232 225 205 215 228 230 234 236 240 247 251 255 257 258 261 263 266 268 271 272 272 273 273 272 269 268 268 265 260 261 261 259 261 266 268 267 266 265 264 261 260 259 258 257 258 258 258 259 258 256 255 257 258 260 262 262 261
157 188 274 244 187 141 123 166 193 213 220 86 180 242 74 208 224 206 197 217 220 232 239 223 224 225 194 195 218 233 225 201 206 225 235 239 238 240 246 252 255 258 261 263 266 270 273 275 276 277 276 277 277 275 271 269 267 264 261 258 257 262 266 267 267 266 265 264 262 261 259 258 257 258 259 259 258 257 256 257 258 259 261 262 261 260
105 186 237 306 160 148 167 202 199 201 196 149 193 212 199 191 247 278 228 220 207 218 236 231 223 224 185 181 209 229 232 200 189 213 233 244 246 246 248 255 259 263 267 271 274 277 278 278 277 277 277 279 279 277 274 269 265 263 260 258 260 264 267 266 266 266 265 264 262 260 258 257 257 258 259 259 257 257 257 258 259 260 261 260 260 259
128 190 193 150 160 176 197 203 198 205 198 188 202 206 206 211 225 280 257 218 185 203 214 225 234 248 236 199 209 232 241 205 189 210 232 250 256 260 264 268 272 276 280 283 285 285 284 283 282 280 277 277 278 277 275 273 269 266 262 260 262 264 265 266 266 266 266 265 263 261 259 258 258 258 259 258 257 257 258 259 259 260 259 259 259 260
117 121 139 167 201 209 212 166 85 98 178 196 217 206 207 212 207 228 238 221 220 218 192 196 240 264 260 232 221 241 247 220 218 221 221 246 259 269 277 280 282 286 290 292 292 292 292 292 292 288 279 275 275 276 276 278 277 273 267 262 262 262 263 265 266 265 266 266 264 263 262 260 258 258 257 257 257 258 259 260 260 260 259 259 260 260
144 120 157 190 272 285 271 344 24 31 69 184 228 211 206 209 207 220 233 236 245 233 212 237 240 222 246 249 245 257 251 224 228 232 223 257 278 287 290 291 290 291 294 298 301 303 304 304 301 295 285 277 275 276 278 280 276 272 268 264 262 261 260 260 260 261 263 264 264 264 263 260 258 257 257 257 257 258 259 260 260 260 259 260 260 260
181 179 177 182 155 320 282 314 319 321 116 197 217 214 213 211 211 223 233 238 248 239 234 253 248 216 249 277 278 281 272 245 226 248 258 268 281 286 287 291 294 296 298 303 309 314 316 317 312 303 293 286 281 279 280 278 271 265 263 261 259 257 255 253 254 257 259 261 262 262 261 259 257 256 256 256 257 258 259 260 261 261 261 261 261 261
178 194 184 189 193 198 208 217 222 220 198 195 218 218 219 214 208 215 229 229 237 237 233 241 246 245 291 289 275 272 275 272 264 269 266 259 266 273 277 284 291 295 299 304 311 314 316 319 317 309 298 288 285 283 279 270 259 255 255 254 253 253 251 251 253 255 257 258 259 259 258 257 255 254 254 255 256 257 259 260 260 260 261 261 262 262
163 206 195 204 211 207 210 216 213 124 137 185 210 214 220 221 211 211 229 230 231 243 242 240 241 247 263 268 264 262 267 276 281 268 259 258 263 271 277 283 289 292 296 300 305 309 312 313 315 314 302 287 281 278 266 245 238 247 249 247 248 250 249 249 251 253 255 257 258 258 257 255 254 254 255 255 257 258 258 259 259 259 259 260 260 261
108 211 202 210 220 222 221 219 128 84 147 193 205 211 217 220 215 217 229 232 229 237 246 245 227 225 237 249 259 265 268 274 279 269 263 265 269 278 285 288 289 288 288 292 300 307 308 307 312 314 308 293 280 268 248 231 236 245 246 243 242 244 247 248 251 255 257 259 259 259 259 258 256 255 255 256 256 257 257 257 256 256 256 257 258 259
135 212 205 206 223 234 236 228 154 111 160 167 177 201 210 209 214 223 231 238 238 237 251 265 245 227 235 248 260 265 262 260 267 269 273 279 280 283 288 287 287 285 282 286 296 304 305 306 311 313 308 296 277 261 243 235 240 240 239 237 235 238 247 255 261 268 271 271 270 269 266 263 259 257 255 255 255 256 256 255 254 254 253 254 255 256
165 203 188 182 219 240 239 234 230 203 206 184 187 206 209 207 215 221 227 234 237 240 251 263 264 258 257 270 272 269 263 258 269 275 278 282 284 286 288 286 287 287 284 287 293 298 300 304 310 313 306 291 273 260 247 241 242 241 237 235 236 241 249 261 273 283 288 287 284 277 271 266 262 258 255 253 254 254 255 255 253 252 250 250 250 250
190 192 128 133 206 246 233 225 223 197 209 232 224 222 223 225 229 224 223 225 229 238 240 242 255 263 257 256 266 271 273 271 272 273 271 272 274 276 280 282 283 284 283 285 288 291 295 296 301 308 302 289 285 280 267 262 258 249 241 238 240 245 250 258 267 275 285 292 291 284 277 272 268 263 258 254 253 253 253 252 252 251 249 248 247 246
176 193 93 113 192 241 215 197 191 133 127 235 237 224 217 219 227 226 221 211 210 221 232 233 242 251 247 241 253 266 269 265 263 264 265 267 265 262 263 267 271 273 274 278 280 281 286 289 292 295 291 285 293 293 279 272 266 254 247 244 244 248 253 258 264 269 276 285 290 290 285 278 273 268 263 258 254 252 251 250 249 249 248 246 245 244
152 155 128 140 192 247 219 154 147 103 79 260 243 221 214 218 226 233 240 228 210 203 217 231 232 236 243 240 241 254 258 255 256 256 257 261 262 259 256 255 258 263 265 268 270 271 277 285 286 284 276 272 284 292 283 268 262 256 252 253 256 259 263 266 269 273 277 280 287 290 284 277 272 269 265 261 257 252 248 248 247 247 248 247 247 247
150 151 163 161 166 250 251 125 111 126 231 248 241 193 198 209 215 222 233 230 216 207 218 235 239 240 244 241 240 249 256 257 258 257 256 258 260 259 256 253 254 257 260 264 268 270 276 281 280 275 267 260 268 280 281 271 266 266 263 263 265 268 275 281 284 287 288 285 284 281 273 266 263 262 260 258 255 250 244 243 244 246 248 248 248 247
152 142 152 158 124 163 215 89 90 217 223 253 315 190 190 198 202 213 229 233 226 223 230 241 248 247 245 247 248 251 257 260 260 260 259 258 257 257 257 256 256 257 259 264 270 274 276 277 274 270 264 258 260 268 271 267 262 261 260 262 265 271 281 291 296 298 297 290 281 271 260 253 251 254 255 254 253 250 245 241 239 240 243 243 243 243
151 140 135 128 113 130 104 106 174 246 282 296 280 247 212 197 185 201 240 251 235 224 225 230 240 243 242 247 251 251 256 261 265 267 266 263 262 261 261 261 261 260 261 264 269 272 273 272 270 268 263 258 254 252 251 251 251 252 254 259 265 272 281 289 295 296 292 284 274 263 251 244 241 241 243 244 245 245 244 243 240 237 237 237 238 238
143 138 128 117 133 147 125 166 245 321 321 282 261 216 181 179 151 163 227 257 233 214 217 221 231 241 240 244 251 253 258 268 278 279 273 269 265 264 263 264 264 263 262 263 265 266 266 266 267 265 257 248 239 232 231 235 244 254 262 268 270 273 278 284 286 283 277 272 265 255 245 238 231 226 226 229 233 236 237 238 239 238 239 240 241 241
139 145 153 152 161 127 115 180 287 352 275 263 254 128 153 169 153 146 181 265 247 214 210 213 224 237 239 244 252 255 262 276 289 276 274 272 265 262 263 263 263 261 259 259 259 259 258 259 257 250 239 231 223 218 220 231 245 254 263 271 273 275 275 275 272 267 264 262 258 252 246 241 236 232 231 232 236 239 239 240 241 243 246 249 251 251
91 105 135 138 157 143 132 186 223 206 252 259 202 118 160 160 141 109 95 269 261 229 204 206 223 236 237 244 250 251 258 267 257 268 273 274 268 263 264 264 262 259 257 254 250 246 245 244 239 230 222 219 215 209 212 227 253 269 277 278 277 276 273 268 262 257 258 259 259 255 252 250 248 246 246 248 252 255 257 259 259 259 260 261 262 261
96 108 142 158 187 164 140 190 221 227 257 258 143 130 155 139 122 85 74 256 262 231 195 200 217 234 239 244 246 241 225 229 245 265 271 274 273 267 263 261 261 259 254 246 235 229 227 223 221 219 214 209 204 204 215 237 265 276 277 275 275 279 280 274 265 256 256 257 256 253 250 247 246 247 251 257 264 268 272 273 274 275 275 275 274 273
142 173 177 183 201 172 156 210 261 257 256 255 138 128 129 115 103 117 215 240 261 251 187 198 214 229 236 240 241 232 237 242 249 261 270 275 277 273 265 260 261 258 248 237 226 223 222 220 222 225 224 223 223 229 239 248 253 251 243 251 264 275 277 272 261 248 246 247 248 248 248 244 241 242 246 253 260 266 271 275 278 281 283 284 286 287
169 181 181 189 203 176 166 211 279 282 266 242 154 147 142 124 144 226 232 249 262 272 199 207 225 237 240 242 242 242 249 254 257 263 268 272 274 271 261 254 254 248 235 225 220 222 224 223 225 227 228 230 230 229 234 241 242 227 209 211 194 180 208 224 223 222 215 220 234 241 247 250 247 245 246 251 256 261 267 272 274 278 282 286 292 296
167 165 191 205 188 152 154 177 204 260 257 165 143 150 152 164 223 237 247 261 263 265 263 245 250 256 253 251 253 254 257 263 265 264 265 264 263 257 240 233 235 232 223 213 208 212 216 216 217 215 213 213 213 214 223 235 238 225 208 200 184 181 187 171 166 187 172 175 208 221 237 255 258 259 262 265 268 272 277 280 281 284 286 289 291 296
173 174 189 197 171 152 168 183 208 245 215 142 141 166 193 203 225 238 243 261 266 268 269 262 265 270 266 264 269 270 266 263 260 255 252 247 238 226 212 208 208 208 205 199 194 196 202 207 207 200 196 195 194 198 200 200 199 188 176 175 184 193 194 175 162 165 148 140 138 128 119 114 108 158 277 282 288 295 300 303 306 305 302 300 298 301
200 197 175 166 178 180 193 207 221 239 214 169 175 202 200 209 227 238 243 260 267 267 268 269 274 279 276 273 275 272 263 255 247 241 236 226 213 197 186 183 182 183 184 181 179 178 182 190 190 185 180 173 168 171 169 161 160 157 156 162 168 173 174 166 165 160 132 119 113 109 104 99 99 98 91 88 65 43 42 18 6 354 337 331 325 320
211 189 132 126 190 207 245 244 237 244 240 219 223 238 232 228 235 240 247 258 263 265 269 271 276 282 280 274 267 260 252 242 231 224 217 206 193 182 176 171 164 160 159 158 159 161 164 167 167 165 161 151 146 149 146 144 146 147 150 156 158 162 168 167 171 174 147 130 126 121 117 114 114 110 104 102 94 80 74 61 53 45 21 15 9 353
225 177 162 172 175 186 241 247 235 241 248 241 238 246 248 249 248 247 252 258 262 268 274 277 280 282 276 266 258 251 240 224 208 198 190 182 174 167 166 164 157 151 145 140 139 143 149 151 149 148 146 140 138 139 140 143 147 148 151 155 157 162 167 165 171 178 167 159 161 161 158 151 137 127 123 122 115 104 94 82 68 53 32 34 35 23
190 172 183 209 188 193 237 238 221 245 257 253 247 247 247 249 251 252 254 259 264 270 274 275 276 272 264 258 249 237 220 203 193 185 175 169 164 160 158 157 155 153 150 144 138 134 136 137 136 137 138 136 137 143 147 150 153 154 156 160 162 166 172 177 186 192 188 186 192 194 203 210 202 187 186 137 80 34 19 23 23 15 3 -0 3 7
147 159 182 197 187 231 261 253 209 297 283 261 245 245 251 256 259 259 258 260 265 269 269 268 266 260 255 252 240 219 199 188 186 182 173 166 163 160 158 157 156 156 156 155 154 149 139 128 124 127 130 132 137 146 154 156 158 159 162 166 169 174 185 201 217 229 237 248 265 276 284 294 300 304 311 316 322 326 325 324 327 332 334 333 331 329
145 169 180 153 172 225 249 235 181 198 271 259 245 249 260 264 264 261 259 260 264 266 263 259 256 252 247 241 231 214 196 184 180 178 173 168 164 163 163 163 162 160 159 159 162 165 163 153 148 149 147 144 147 156 164 166 167 169 171 176 185 195 206 222 239 252 261 270 282 289 298 309 313 316 320 320 320 322 323 321 320 320 320 321 322 321
185 189 171 169 210 231 232 201 171 186 241 260 259 261 268 270 267 264 263 266 267 266 260 252 247 241 229 220 215 207 196 183 177 176 172 166 165 166 166 167 168 166 166 168 170 174 174 173 174 177 176 175 179 185 187 185 182 182 187 194 207 219 231 243 253 261 270 281 289 294 301 305 308 314 318 319 318 316 312 309 309 309 310 309 308 310